This demonstration page uses our WeatherBlox Daily Observations layout. Learn more.

Left ArrowRight Arrow

44.89941, -97.11507

Hourly Observations for July 16, 2020

Temp ( °F °C ) Dew Point ( °F °C ) Humidity (%) Winds ( mph kmh ) Pressure ( in mb ) Visibility ( mi km ) Precip ( " mm )
12:53 am 00:53 Clear 65 18.3 56 13.3 73 73 S 9 15 29.96 1015 10 16 0.00 0.00
1:53 am 01:53 Clear 64 17.8 57 13.9 78 78 SSE 8 13 29.96 1014 10 16 0.00 0.00
2:53 am 02:53 Clear 62 16.7 56 13.3 80 80 SE 7 11 29.93 1014 10 16 0.00 0.00
3:53 am 03:53 Clear 60 15.6 56 13.3 86 86 SSE 9 15 29.93 1013 10 16 0.00 0.00
4:53 am 04:53 Clear 62 16.7 57 13.9 84 84 SSE 7 11 29.93 1014 10 16 0.00 0.00
5:53 am 05:53 Mostly Cloudy 64 17.8 60 15.6 87 87 WNW 17 28 30.00 1016 10 16 0.00 0.00
6:20 am 06:20 Cloudy with Nearby Thunderstorms 68 20 59 15 73 73 WNW 13 20 29.96 1015 10 16 0.00 0.00
6:35 am 06:35 Cloudy with Light Rain 66 18.9 60 15.6 81 81 NNW 7 11 29.96 1015 10 16 0.00 0.00
6:42 am 06:42 Cloudy with Nearby Thunderstorms 65 18.3 60 15.6 84 84 NNW 5 7 29.96 1014 10 16 0.01 0.25
6:53 am 06:53 Cloudy with Strong Thunderstorms 64 17.8 61 16.1 90 90 NW 7 11 29.99 1016 5 8 0.04 1.02
7:22 am 07:22 Partly Cloudy with Nearby Thunderstorms 64 17.8 61 16.1 90 90 SE 9 15 29.93 1013 10 16 0.04 1.02
7:32 am 07:32 Mostly Sunny 64 17.8 61 16.1 90 90 SSE 9 15 29.95 1014 10 16 0.04 1.02
7:53 am 07:53 Mostly Cloudy 65 18.3 61 16.1 87 87 SSE 8 13 29.96 1015 10 16 0.04 1.02
8:53 am 08:53 Partly Cloudy 69 20.6 63 17.2 81 81 S 16 26 29.92 1013 10 16 0.00 0.00
9:53 am 09:53 Sunny 72 22.2 64 17.8 76 76 S 20 31 29.93 1014 10 16 0.00 0.00
10:53 am 10:53 Sunny 77 25 64 17.8 64 64 SSW 22 35 29.93 1014 10 16 0.00 0.00
11:53 am 11:53 Mostly Sunny 81 27.2 63 17.2 54 54 SW 23 37 29.93 1014 10 16 0.00 0.00
12:53 pm 12:53 Sunny 82 27.8 66 18.9 58 58 SW 18 30 29.93 1014 10 16 0.00 0.00
1:53 pm 13:53 Mostly Sunny 84 28.9 67 19.4 57 57 SW 21 33 29.93 1014 10 16 0.00 0.00
2:53 pm 14:53 Sunny 85 29.4 65 18.3 51 51 WSW 16 26 29.92 1013 10 16 0.00 0.00
3:53 pm 15:53 Mostly Cloudy 83 28.3 64 17.8 53 53 W 12 19 29.93 1014 10 16 0.00 0.00
4:53 pm 16:53 Partly Cloudy 84 28.9 58 14.4 41 41 W 8 13 29.93 1014 10 16 0.00 0.00
5:53 pm 17:53 Sunny 84 28.9 61 16.1 46 46 VRB 7 11 29.92 1013 10 16 0.00 0.00
6:53 pm 18:53 Sunny 84 28.9 56 13.3 38 38 W 5 7 29.93 1013 10 16 0.00 0.00
7:53 pm 19:53 Sunny 81 27.2 60 15.6 49 49 WSW 3 6 29.93 1014 10 16 0.00 0.00
8:53 pm 20:53 Sunny 76 24.4 58 14.4 54 54 W 3 6 29.94 1014 10 16 0.00 0.00
9:53 pm 21:53 Clear 73 22.8 59 15 62 62 Calm 29.96 1015 10 16 0.00 0.00
10:53 pm 22:53 Clear 68 20 59 15 73 73 Calm 29.98 1015 10 16 0.00 0.00
11:53 pm 23:53 Clear 67 19.4 60 15.6 79 79 Calm 29.99 1016 10 16 0.00 0.00

Powered by AerisWeather